RH
14 16 15 16 24 28 32 47 76 76 86 87 95 94 78 67 63 41 29 28 37 32 29 28 33 42 44 46 50 50 54 58 58 60 53 55 58 57 62 66 63 64 63 65
11 13 10 12 22 35 30 40 78 81 87 82 91 89 84 79 71 50 35 34 35 36 49 29 33 38 42 49 51 56 62 60 57 53 58 57 57 56 64 63 63 71 64 62
12 9 8 10 20 32 33 34 65 79 89 80 82 95 91 78 79 71 54 34 35 47 59 32 32 35 48 56 56 62 63 57 65 65 64 55 60 58 62 62 64 66 67 66
9 8 8 10 21 28 29 53 67 89 88 85 71 92 93 84 84 86 74 40 47 60 32 34 32 34 39 60 55 60 65 62 67 70 66 60 63 60 56 60 58 65 64 64
8 9 9 10 12 28 35 32 63 70 86 71 78 80 94 87 88 86 70 46 42 44 34 46 29 36 39 40 54 59 61 66 63 74 64 64 57 55 57 59 62 68 65 63
8 7 8 9 13 17 22 40 50 76 97 88 63 60 77 94 73 58 53 49 44 36 34 42 54 33 38 39 49 57 62 64 68 69 67 71 67 63 64 59 63 65 65 65
8 11 9 10 13 17 21 27 60 81 74 69 50 53 58 63 52 44 50 50 40 42 37 36 49 55 46 46 48 59 68 66 68 72 70 72 69 69 67 67 62 65 61 62
12 16 13 10 13 20 19 20 39 58 65 65 56 58 63 44 41 42 39 43 39 39 46 47 39 49 47 53 47 52 68 69 69 70 66 69 72 68 66 63 64 62 67 59
15 10 10 10 11 12 16 22 18 38 77 58 80 89 40 42 41 44 45 46 47 58 55 47 48 46 53 53 49 59 68 67 68 67 65 64 70 67 66 65 55 50 70 62
13 18 9 10 10 10 13 12 20 35 63 59 79 77 96 50 44 39 42 41 41 43 65 53 46 42 43 46 45 56 63 66 64 60 66 66 70 68 70 70 71 73 68 55
13 15 12 11 12 12 11 13 13 14 28 55 56 48 62 65 81 43 44 39 38 34 38 47 55 50 48 41 41 57 57 60 60 58 58 58 60 62 66 66 69 68 68 54
12 12 16 14 9 8 10 10 10 14 21 19 24 27 45 56 55 38 45 42 40 37 36 39 39 53 46 50 54 60 53 55 51 53 51 59 54 56 60 60 64 66 69 78
18 16 17 16 12 11 11 10 9 8 10 18 17 44 42 44 46 37 36 41 43 39 37 37 40 65 63 58 57 53 55 66 58 58 60 60 61 53 53 56 58 61 71 74
18 18 19 27 27 25 24 18 8 8 12 12 11 35 30 27 38 34 34 38 52 60 47 40 53 65 83 77 65 72 71 72 72 66 65 66 70 62 62 56 56 56 64 68
14 20 17 16 19 19 21 22 17 10 11 13 10 28 33 33 36 39 36 38 55 53 62 78 69 74 82 77 86 77 75 66 68 70 75 73 73 68 69 70 60 56 63 67
14 20 17 18 16 20 20 18 17 12 9 10 10 13 27 53 63 77 48 50 65 59 65 60 56 64 73 78 90 81 81 74 69 73 70 64 61 72 75 86 74 71 66 66
40 25 29 30 20 24 23 20 20 15 10 13 15 57 50 53 71 86 72 57 76 78 78 81 85 69 75 77 80 83 88 89 88 84 91 97 97 92 92 85 89 97 80 77
23 23 24 36 42 55 33 28 31 35 43 37 49 56 61 50 51 69 62 68 74 75 85 90 96 98 77 76 75 74 82 85 86 86 93 97 99 98 99 100 100 97 92 97
16 22 24 42 85 47 28 35 37 43 48 40 53 69 48 69 67 74 66 60 76 79 83 94 100 100 98 96 96 98 99 100 98 97 98 100 99 100 94 95 96 98 100 96
17 22 26 33 44 83 70 40 36 33 55 36 40 71 70 77 88 82 71 71 72 76 87 97 100 100 99 99 95 97 100 98 100 99 100 99 97 97 95 97 92 95 88 89
49 39 29 27 47 75 53 47 39 63 63 38 36 68 58 85 89 83 69 75 78 86 96 100 100 100 100 98 92 99 100 99 99 97 97 97 94 92 91 100 100 98 93 92
76 82 40 37 38 52 50 74 94 52 38 38 36 76 68 67 79 76 78 79 84 87 89 93 96 100 100 96 92 94 95 94 93 91 90 87 88 92 99 97 95 95 91 88
27 28 35 68 65 36 29 34 30 33 35 36 38 58 73 76 79 78 85 83 84 80 81 86 86 87 93 87 81 95 88 77 78 78 79 80 85 89 89 91 93 86 78 71
19 22 26 26 32 31 30 28 30 32 33 31 34 41 47 74 71 79 85 86 81 76 75 75 77 84 92 87 84 80 83 80 76 74 72 77 76 76 82 87 80 71 68 75
28 34 28 26 30 35 31 31 29 30 32 33 39 47 54 70 77 83 85 82 81 73 67 62 63 70 77 78 78 78 78 76 76 74 76 71 72 68 59 58 62 59 56 54
21 24 28 36 40 43 43 36 29 28 30 32 37 57 58 73 78 82 86 82 77 78 71 69 65 65 64 67 67 68 71 72 72 71 69 67 68 62 61 59 49 48 48 50
Wind_Speed
14 11 16 19 19 7 6 4 9 9 12 5 3 4 13 6 9 10 16 15 17 19 19 20 24 28 23 20 15 18 24 15 16 11 12 10 9 9 12 9 10 7 5 1
11 16 19 20 6 10 16 13 14 11 15 3 4 14 14 7 7 7 9 17 17 11 3 19 23 25 27 21 19 16 18 17 14 11 8 10 10 11 10 10 7 3 6 3
18 15 19 20 7 6 24 9 13 8 10 3 9 3 8 9 9 15 13 18 17 22 16 17 19 24 31 29 25 18 17 18 13 6 13 13 9 13 12 8 9 8 4 5
16 15 18 18 12 11 8 17 12 11 8 3 13 3 1 14 10 11 16 9 9 3 20 17 18 22 28 31 28 24 17 15 11 7 8 18 14 9 10 8 12 12 8 5
12 12 10 16 17 17 12 12 18 15 8 9 12 4 6 10 11 17 22 12 19 25 14 10 21 18 22 25 29 26 22 17 14 7 5 9 6 5 10 9 14 9 9 8
17 12 7 9 8 12 18 21 16 13 5 4 12 5 8 16 31 24 15 14 10 10 18 18 28 26 23 25 29 28 26 20 14 12 9 8 4 5 5 12 11 12 11 12
13 10 5 9 15 8 7 13 4 3 7 4 15 9 6 23 18 22 19 19 17 15 12 17 11 17 19 16 21 30 28 24 17 13 10 8 10 15 8 7 6 2 13 14
10 12 15 15 17 10 11 12 5 3 3 1 4 2 5 23 20 25 22 19 17 21 14 15 19 17 23 24 19 30 28 23 21 16 14 12 13 12 10 8 4 8 9 11
7 15 14 13 14 13 13 10 16 5 7 6 1 5 2 20 15 19 20 22 19 9 5 17 24 28 22 19 25 33 30 26 22 20 16 12 9 10 4 3 6 3 6 5
6 13 16 13 11 15 16 7 10 5 3 5 6 7 5 9 15 21 21 25 21 20 23 23 19 23 31 39 22 33 31 28 24 21 20 16 15 10 8 4 5 6 4 4
12 11 2 10 10 13 11 12 10 13 8 4 8 4 11 3 10 16 21 24 24 21 18 14 21 29 37 31 27 30 28 26 25 23 22 19 16 14 13 10 7 6 5 16
10 10 8 12 13 16 16 16 17 10 11 10 10 3 12 16 9 12 21 22 23 20 19 13 15 29 24 20 25 26 22 29 29 25 23 22 19 17 17 15 11 10 8 13
11 5 8 13 8 8 13 17 14 15 15 15 9 5 17 14 16 14 13 21 18 22 21 14 9 21 22 6 30 23 12 18 19 23 23 19 13 18 14 16 14 12 11 9
3 12 12 5 8 11 15 18 17 16 12 15 13 15 16 16 14 13 13 22 19 12 16 14 12 14 23 22 22 24 20 23 13 15 10 13 18 14 14 14 17 16 13 11
5 11 13 4 11 10 15 20 20 18 16 17 13 5 9 9 10 9 8 12 21 20 12 12 9 13 22 26 23 20 21 19 15 6 5 6 7 14 17 13 19 16 16 13
10 10 13 14 9 12 15 18 21 18 20 17 16 8 16 11 18 27 6 7 14 15 9 11 12 16 15 16 14 18 16 14 18 17 12 12 15 11 17 22 15 15 12 13
9 13 5 13 7 14 9 10 14 15 9 5 12 10 9 10 15 2 7 3 9 8 11 11 8 8 15 16 17 14 13 11 11 9 6 3 3 7 10 17 16 8 9 9
15 9 3 7 10 11 9 17 17 20 20 19 25 17 15 13 15 11 6 3 4 9 12 7 9 12 6 14 18 18 17 17 14 11 10 7 6 8 10 13 15 14 11 14
3 7 8 1 3 17 1 8 12 14 18 16 17 15 10 13 11 3 5 8 12 8 13 13 12 11 21 21 18 19 19 16 16 12 10 8 7 5 4 4 7 14 17 18
10 7 7 1 5 1 12 15 17 16 6 19 9 16 8 8 2 3 7 12 12 12 13 12 13 17 21 18 21 24 22 18 15 10 9 10 9 8 6 5 7 9 7 5
9 8 9 11 3 3 9 15 11 7 7 13 16 5 11 7 1 6 11 12 15 14 15 14 14 17 17 15 17 20 15 16 15 14 13 9 9 6 8 10 15 14 15 13
5 4 5 6 4 3 11 13 0 1 3 7 11 6 2 15 9 11 11 11 13 14 15 17 19 18 18 20 24 23 20 17 17 16 17 15 13 11 15 16 12 11 13 13
3 2 6 7 3 4 6 9 7 8 5 6 7 7 9 14 13 8 10 11 13 17 17 17 19 19 17 20 25 24 20 21 21 20 18 17 16 15 13 13 12 13 15 16
2 5 4 8 9 9 8 6 7 6 7 9 9 10 9 14 10 13 10 9 12 14 16 18 18 17 15 15 18 21 19 17 17 16 15 16 16 9 7 7 9 9 5 7
5 2 2 6 6 7 5 7 5 5 6 7 7 8 8 13 12 13 9 11 11 13 17 16 16 16 15 15 15 13 14 15 15 12 12 11 11 4 9 15 12 10 11 9
4 6 4 3 7 4 5 4 1 3 4 5 5 9 6 16 12 14 9 14 15 12 16 17 16 16 14 12 13 11 9 9 11 11 11 13 13 8 7 5 7 6 7 8
Wind_Direction
201 216 220 219 221 193 153 86 126 136 145 134 155 329 256 247 285 253 165 163 142 168 156 165 140 130 137 154 155 145 146 142 146 167 160 155 154 145 126 133 127 129 121 236
178 224 235 226 276 57 280 151 151 132 141 113 157 315 208 285 261 265 168 153 154 143 298 166 153 145 145 152 146 144 148 156 179 176 188 173 167 156 152 146 141 137 144 141
231 210 230 243 209 252 261 152 159 130 142 83 125 42 198 260 300 304 287 161 173 145 225 164 171 155 148 150 156 157 165 183 188 147 165 156 109 142 146 157 167 170 165 175
237 251 203 237 200 212 256 96 105 129 170 205 213 137 225 205 244 290 282 180 189 264 176 163 180 162 157 157 163 168 169 181 203 176 177 149 191 186 177 187 184 171 179 193
223 245 246 223 236 166 104 115 145 167 183 151 205 143 163 175 239 229 227 220 179 193 175 161 177 163 140 163 156 161 173 181 195 194 192 166 173 199 199 184 153 168 179 189
257 211 232 246 243 244 120 126 106 102 217 230 193 178 203 176 207 214 217 234 208 195 196 157 234 171 177 168 158 162 170 176 191 186 183 192 64 255 251 174 182 190 197 191
233 250 265 226 238 187 219 193 174 201 206 235 179 197 232 213 209 198 199 213 202 218 221 165 208 131 164 180 180 159 162 166 183 191 184 166 155 185 238 207 205 208 208 201
205 208 210 222 237 179 214 245 201 289 327 58 335 264 232 201 198 193 195 196 215 196 165 227 182 166 177 203 198 161 163 163 175 189 191 182 180 194 213 208 238 214 302 184
309 230 181 196 237 251 206 215 244 168 127 274 346 13 333 175 187 185 204 189 208 194 251 239 156 169 170 193 231 160 160 165 179 188 189 187 187 211 243 214 238 177 8 124
306 303 190 194 193 259 273 267 220 154 156 300 218 177 304 177 198 182 197 191 201 170 188 234 173 173 174 198 208 160 159 164 177 185 180 190 191 204 201 185 193 196 236 128
297 296 175 155 204 235 221 253 263 267 182 141 281 156 167 232 306 187 189 190 190 205 208 184 163 198 194 188 163 154 160 167 180 181 181 184 188 193 197 196 205 200 177 185
223 286 282 255 207 216 250 225 242 258 252 241 233 267 172 155 272 251 189 203 187 202 209 200 188 177 195 149 154 161 162 166 182 190 185 185 190 193 195 195 199 214 190 193
342 262 266 258 238 238 216 247 251 251 271 279 298 134 181 190 200 189 202 184 189 195 200 207 183 145 125 121 145 173 225 221 185 175 195 190 197 190 206 196 206 208 194 196
318 284 300 7 273 273 302 317 249 255 244 260 258 145 182 186 175 194 172 172 190 189 187 194 116 140 143 208 163 161 180 167 168 157 190 195 204 193 225 217 213 211 202 211
263 270 287 278 298 285 284 294 304 249 256 248 267 131 171 173 169 186 173 143 155 181 144 134 180 134 131 148 142 151 161 159 152 167 221 232 218 211 219 255 232 211 210 210
270 253 276 286 261 246 271 251 287 244 245 258 273 285 160 110 63 355 145 105 113 169 181 155 170 159 159 142 134 149 151 159 185 212 236 250 248 236 238 260 253 226 216 220
318 288 354 299 358 339 263 297 285 293 253 286 284 96 91 64 83 37 325 173 104 114 84 96 79 166 153 159 159 171 153 155 155 168 151 171 195 221 227 239 235 211 207 198
238 275 301 283 358 252 24 10 18 357 17 6 46 62 87 122 161 178 190 138 90 124 112 91 62 52 129 165 164 176 159 158 156 149 150 151 147 135 119 108 100 110 137 112
358 311 277 62 338 295 227 24 13 6 327 8 37 81 90 99 93 37 115 152 133 121 90 96 91 65 79 89 110 115 116 110 119 127 140 152 150 142 151 157 101 86 107 105
330 356 289 318 297 293 318 319 319 338 53 345 40 82 34 355 113 159 95 108 108 103 100 99 96 94 94 89 107 98 99 108 95 123 140 158 160 162 165 157 162 156 174 138
337 321 279 278 151 90 264 314 351 67 353 337 2 94 151 163 357 118 103 90 96 105 105 99 94 89 96 112 119 101 103 103 112 116 120 123 134 151 154 125 131 129 122 131
138 316 316 347 318 118 188 46 21 338 286 332 343 70 86 99 111 109 112 105 114 107 104 103 94 92 103 112 114 102 102 115 118 116 111 107 111 108 132 129 120 129 135 135
213 277 357 143 246 127 70 96 76 8 22 341 337 102 107 113 125 130 116 116 120 116 110 107 107 106 106 114 115 109 114 115 115 109 103 109 100 96 116 114 117 131 134 136
178 38 293 323 134 129 106 102 70 32 19 343 12 15 105 118 126 113 114 125 127 125 123 117 108 103 107 117 120 117 119 116 113 114 110 108 103 104 126 133 106 124 120 192
44 206 352 293 185 135 155 79 20 43 18 8 43 40 89 119 120 121 124 132 113 130 126 124 119 115 112 113 113 121 126 126 122 124 120 124 116 105 75 82 83 83 81 79
235 246 258 337 78 111 110 106 359 357 9 2 36 65 62 120 134 124 108 101 107 106 103 102 113 115 119 119 120 120 130 140 142 148 165 167 144 136 117 95 89 84 100 96